SCP
1 1 1 1 0 0 0 0 0 0 0 0 0 0 0 0 0 0 0 0 0 0 0 0 0 0 0 0 0 0 0 0 0 0 0 0 0 0 0 0 0 0 0
1 1 1 1 1 0 0 0 0 0 0 0 0 0 0 0 0 0 0 0 0 0 0 0 0 0 0 0 0 0 0 0 0 0 0 0 0 0 0 0 0 0 0
1 1 1 1 1 0 0 0 0 0 0 0 0 0 0 0 0 0 0 0 0 0 0 0 0 0 0 0 0 0 0 0 0 0 0 0 0 0 0 0 0 0 0
1 1 1 1 1 1 0 0 0 0 0 0 0 0 0 0 0 0 0 0 0 0 0 0 0 0 0 0 0 0 0 0 0 0 0 0 0 0 0 0 0 0 0
1 1 1 1 1 1 0 0 0 0 0 0 0 0 0 0 0 0 0 0 0 0 0 0 0 0 0 0 0 0 0 0 0 0 0 0 0 0 0 0 0 0 0
2 2 2 2 1 1 1 0 0 0 0 0 0 0 0 0 0 0 0 0 0 0 0 0 0 0 0 0 0 0 0 0 0 0 0 0 0 0 0 0 0 0 0
2 2 2 2 2 1 1 1 0 0 0 0 0 0 0 0 0 0 0 0 0 0 0 0 0 0 0 0 0 0 0 0 0 0 0 0 0 0 0 0 0 0 0
3 2 2 2 2 2 1 1 0 0 0 0 0 0 0 0 0 0 0 0 0 0 0 0 0 0 0 0 0 0 0 0 0 0 0 0 0 0 0 0 0 0 0
2 2 2 2 2 2 1 1 1 0 0 0 0 0 0 0 0 0 0 0 0 0 0 0 0 0 0 0 0 0 0 0 0 0 0 0 0 0 0 0 0 0 0
2 2 2 2 2 1 1 1 1 1 0 0 0 0 0 0 0 0 0 0 0 0 0 0 0 0 0 0 0 0 0 0 0 0 0 0 0 0 0 0 0 0 0
2 2 2 2 2 1 1 1 1 1 0 0 0 0 0 0 0 0 0 0 0 0 0 0 0 0 0 0 0 0 0 0 0 0 0 0 0 0 0 0 0 0 0
1 1 2 2 2 2 1 1 1 1 0 0 0 0 0 0 0 0 0 0 0 0 0 0 0 0 0 0 0 0 0 0 0 0 0 0 0 0 0 0 0 0 0
1 1 2 2 2 2 2 2 1 1 0 0 0 0 0 0 0 0 0 0 0 0 0 0 0 0 0 0 0 0 0 0 0 0 0 0 0 0 0 0 0 0 0
1 1 2 2 3 3 3 2 1 1 1 1 0 0 0 0 0 0 0 0 0 0 0 0 0 0 0 0 0 0 0 0 0 0 0 0 0 0 0 0 0 0 0
1 2 2 3 4 4 3 3 2 1 1 1 1 0 0 0 0 0 0 0 0 0 0 0 0 0 0 0 0 0 0 0 0 0 0 0 0 0 0 0 0 0 0
1 1 2 3 4 5 4 3 2 2 2 1 1 1 0 0 0 0 0 0 0 0 0 0 0 0 0 0 0 0 0 0 0 0 0 0 0 0 0 0 0 0 0
0 1 2 3 4 5 5 4 3 2 2 2 1 1 1 0 0 0 0 0 0 0 0 0 0 0 0 0 0 0 0 0 0 0 0 0 0 0 0 0 0 0 0
0 0 1 3 4 5 5 5 4 3 2 2 2 1 1 0 0 0 0 0 0 0 0 0 0 0 0 0 0 0 0 0 0 0 0 0 0 0 0 0 0 0 0
0 0 1 3 4 5 6 5 4 3 3 3 3 2 1 0 0 0 0 0 0 0 0 0 0 0 0 0 0 0 0 0 0 0 0 0 0 0 0 0 0 0 0
0 0 1 2 4 6 6 6 5 4 4 4 3 2 1 0 0 0 0 0 0 0 0 0 0 0 0 0 0 0 0 0 0 0 0 0 0 0 0 0 0 0 0
0 0 0 1 3 6 7 6 5 5 4 4 3 2 1 0 0 0 0 0 0 0 0 0 0 0 0 0 0 0 0 0 0 0 0 0 0 0 0 0 0 0 0
0 0 0 0 3 6 7 7 6 4 3 2 2 1 0 0 0 0 0 0 0 0 0 0 0 0 0 0 0 0 0 0 0 0 0 0 0 0 0 0 0 0 0
0 0 0 0 2 6 7 7 5 3 1 1 0 0 0 0 0 0 0 0 0 0 0 0 0 0 0 0 0 0 0 0 0 0 0 0 0 0 0 0 0 0 0
0 0 0 1 3 6 7 6 4 2 0 0 0 0 0 0 0 0 0 0 0 0 0 0 0 0 0 0 0 0 0 0 0 0 0 0 0 0 0 0 0 0 0
0 0 1 2 5 6 7 5 3 1 0 0 0 0 0 0 0 0 0 0 0 0 0 0 0 0 0 0 0 0 0 0 0 0 0 0 0 0 0 0 0 0 0
0 0 1 3 5 6 6 4 2 1 0 0 0 0 0 0 0 0 0 0 0 0 0 0 0 0 0 0 0 0 0 0 0 0 0 0 0 0 0 0 0 0 0
Wind_Speed
11 14 18 17 16 14 13 12 12 11 9 9 11 13 14 14 14 13 12 12 11 11 11 13 15 14 13 12 13 13 11 9 8 6 4 5 7 8 8 7 6 3 5
15 16 18 17 16 15 14 13 12 10 8 8 10 12 14 13 13 12 12 12 12 11 12 12 14 15 15 14 12 11 9 8 5 3 2 0 4 8 8 7 7 4 6
17 17 17 17 17 15 14 13 11 10 9 9 11 13 13 13 12 12 12 13 12 13 13 13 13 13 13 12 10 9 8 6 4 5 7 2 4 8 7 7 6 5 4
17 16 16 18 17 16 15 13 11 10 10 11 12 13 13 12 12 11 11 12 12 12 12 12 12 12 11 10 9 8 7 5 4 7 4 3 4 7 6 5 6 6 5
16 15 17 18 18 17 15 13 11 10 10 11 12 12 11 11 10 9 10 11 11 10 11 10 10 10 9 8 7 6 6 5 7 7 3 3 5 6 6 4 4 5 5
14 15 17 17 17 17 15 14 12 11 11 11 11 11 10 9 7 7 8 10 9 9 8 8 8 8 7 6 5 5 4 5 8 4 1 4 5 6 5 5 4 4 5
14 16 17 18 18 17 15 14 13 12 11 11 10 10 9 8 6 5 8 10 9 8 7 7 7 6 5 5 4 4 2 5 5 3 3 5 5 6 5 5 6 5 5
15 16 15 18 17 17 16 14 13 12 12 11 10 9 8 7 6 6 10 11 9 7 7 6 6 5 5 5 4 3 2 5 5 4 3 6 6 6 6 7 7 7 7
14 16 12 13 13 15 16 14 13 12 11 10 9 9 9 8 8 9 11 11 9 7 6 6 6 6 5 5 4 3 4 6 5 3 6 5 7 7 7 8 8 8 9
10 14 13 12 12 11 11 14 13 11 10 9 9 10 10 8 8 10 10 10 10 8 7 7 6 6 5 5 3 4 6 7 2 5 5 5 9 8 9 10 11 13 14
7 10 13 13 12 11 10 12 12 11 10 9 8 10 9 5 6 7 10 10 10 9 8 7 6 5 5 3 1 4 6 3 4 5 4 7 9 10 13 13 14 14 15
7 8 10 12 12 11 10 9 7 7 7 7 6 7 5 4 5 9 10 10 10 10 8 6 5 3 2 1 1 3 3 5 4 6 6 12 11 12 13 13 13 13 14
10 8 8 10 11 10 8 8 6 5 6 7 9 9 5 4 5 6 4 5 5 7 4 4 2 1 3 2 2 3 3 2 3 5 7 13 12 12 12 13 13 13 13
12 12 9 8 9 9 9 8 6 5 6 5 6 8 5 4 4 4 4 5 4 3 3 2 2 3 3 4 4 4 4 2 4 4 6 13 13 12 12 12 12 13 12
7 12 11 10 9 8 8 6 6 6 6 6 5 5 6 4 4 4 4 4 4 3 3 3 3 4 4 4 4 4 4 4 5 6 5 12 12 12 12 12 12 12 12
6 9 11 11 11 9 7 6 6 6 6 6 5 6 7 5 4 5 5 4 4 3 3 3 4 3 3 3 3 3 3 3 4 7 5 7 11 11 11 11 12 12 12
8 9 10 11 12 12 9 8 6 6 7 6 6 6 6 6 7 6 5 4 3 4 4 4 4 3 2 2 1 2 2 3 3 5 6 4 4 8 8 9 11 12 12
7 8 10 11 12 13 11 8 5 6 7 7 7 6 7 9 9 7 5 4 4 4 4 3 2 2 3 3 2 2 1 1 1 3 4 4 3 3 4 6 9 11 11
8 8 9 10 11 12 12 9 7 6 7 7 8 7 8 10 9 7 6 5 5 4 4 3 4 3 3 3 3 1 0 1 2 2 2 4 4 2 1 3 7 10 11
8 8 9 11 11 10 10 8 6 6 6 7 7 8 11 9 9 8 6 6 6 5 4 4 3 3 2 2 3 1 1 1 2 2 2 2 3 3 2 1 2 4 10
8 8 8 10 11 9 9 10 9 7 6 6 6 10 11 10 10 9 7 7 6 5 4 5 3 4 3 3 2 2 1 1 2 2 2 1 1 3 3 1 1 2 3
10 9 8 8 11 11 10 9 6 5 5 5 6 8 9 10 10 9 9 7 6 5 6 5 3 3 2 3 2 2 3 2 2 2 2 2 2 0 0 1 1 1 2
12 11 8 8 9 12 12 9 7 6 5 4 6 6 7 9 9 9 9 8 7 6 5 5 3 3 2 2 3 3 2 2 4 3 2 1 0 0 1 1 2 2 2
11 11 11 9 9 12 14 14 15 11 8 7 6 6 8 8 9 10 10 9 8 6 6 5 4 3 3 2 1 2 2 2 1 4 4 3 3 2 3 3 3 3 3
8 8 10 10 9 11 13 14 14 10 7 9 9 10 8 7 8 10 10 9 8 6 7 6 5 3 2 2 2 1 1 0 2 2 4 4 4 3 4 4 4 4 4
6 5 8 10 10 12 13 13 13 14 14 16 15 13 10 7 7 9 10 8 8 7 7 6 5 4 3 3 2 1 1 0 1 1 3 4 5 4 5 5 6 5 4
Wind_Direction
129 138 144 141 136 131 124 116 108 101 99 107 117 120 115 108 99 91 81 72 65 62 62 57 56 60 73 89 91 84 75 68 61 48 47 56 64 54 43 33 9 20 66
133 139 143 141 138 133 127 119 111 105 103 113 123 124 118 110 102 93 83 75 69 68 68 65 61 62 66 71 73 72 67 63 53 3 336 228 89 68 47 35 24 23 37
132 138 142 141 139 135 128 123 117 111 110 118 125 124 120 113 105 96 88 79 74 73 72 69 66 65 66 67 65 62 59 52 19 324 309 238 125 68 48 28 13 9 5
132 140 143 142 141 137 132 127 122 116 117 121 123 125 121 115 109 102 93 86 81 78 76 72 69 66 65 64 61 58 55 40 338 319 313 80 85 65 45 22 3 0 355
135 143 139 145 143 140 136 132 126 121 121 123 123 123 120 117 113 108 102 98 92 85 79 73 70 67 66 64 60 54 44 7 327 305 297 79 86 57 38 17 358 345 340
136 133 141 145 145 143 140 137 133 130 127 124 123 121 115 109 107 111 116 114 105 92 78 67 65 66 67 67 66 58 35 344 316 298 59 79 88 45 25 6 353 340 324
133 131 146 146 148 147 144 142 141 139 137 132 127 122 114 102 91 111 131 128 116 97 75 61 57 62 65 65 63 58 26 321 293 303 64 81 73 40 10 360 356 346 328
128 135 146 150 152 151 148 148 148 147 147 144 140 132 117 97 87 110 133 134 123 100 77 64 60 67 67 60 53 39 338 303 323 342 73 83 51 21 4 13 14 7 1
130 136 146 152 156 156 152 152 154 155 155 154 149 136 119 104 97 110 129 132 120 101 87 78 78 82 79 68 49 9 325 316 310 329 61 64 26 15 13 19 18 17 19
133 141 153 157 162 161 158 157 158 159 160 160 150 136 132 126 120 118 120 121 118 111 102 95 95 99 97 85 54 348 329 320 331 44 57 38 26 25 40 46 47 49 47
147 149 158 163 165 165 164 163 158 160 162 159 149 152 155 168 156 130 121 124 124 121 117 116 120 126 125 111 44 333 332 349 15 64 42 37 46 58 63 60 55 52 49
172 171 163 167 167 168 166 158 166 167 164 171 167 171 193 199 142 127 130 131 131 128 126 132 143 170 179 96 341 336 18 2 22 68 43 56 67 69 64 58 53 50 48
176 180 172 165 166 166 157 163 171 171 170 190 179 181 188 138 121 130 136 133 137 143 141 154 163 77 67 66 15 15 35 4 48 70 49 59 66 68 64 57 50 45 40
175 174 173 165 162 164 161 170 171 170 172 187 178 171 155 140 160 163 154 155 148 133 121 112 91 78 51 42 39 15 9 27 85 92 62 64 66 65 61 54 46 37 30
179 168 172 168 166 168 167 172 172 171 170 173 162 159 151 150 161 131 107 106 107 114 114 86 66 61 50 37 26 22 11 26 83 99 79 74 69 65 58 49 39 30 21
199 171 169 173 171 171 173 173 175 176 168 165 155 165 160 151 136 113 105 102 99 95 91 90 78 65 59 49 23 16 12 25 77 111 112 86 80 71 58 46 33 22 13
199 185 174 177 176 174 177 179 179 178 169 162 158 168 160 137 124 118 116 116 116 111 93 75 76 65 60 19 8 63 44 33 54 108 123 124 104 84 64 41 23 13 5
210 192 182 178 178 175 175 180 185 182 171 165 160 165 151 132 128 124 126 126 121 102 90 80 60 63 55 26 359 18 33 96 49 96 107 107 102 85 61 33 15 4 356
225 205 185 171 175 174 170 174 188 189 172 165 160 157 141 132 131 130 130 130 118 104 96 86 56 54 48 11 320 281 313 168 150 113 122 124 122 112 63 6 8 356 348
236 222 187 171 173 171 164 168 185 192 173 161 155 144 136 135 133 129 132 128 115 108 107 104 103 71 47 345 310 292 214 178 147 174 190 150 160 176 187 126 29 359 351
246 236 207 182 176 170 166 174 185 186 163 144 138 138 137 138 137 139 135 127 124 124 128 126 118 90 35 352 3 342 281 201 183 203 188 167 210 203 188 171 92 43 341
238 239 222 196 180 175 172 174 172 143 118 107 117 125 133 139 143 142 136 132 124 116 103 96 96 109 62 30 42 16 1 341 303 247 180 187 226 177 104 42 38 343 317
223 228 227 210 186 172 160 150 127 103 89 94 116 127 136 142 142 138 132 128 125 120 119 113 103 104 130 68 60 77 74 330 321 320 274 203 177 309 289 292 281 269 288
225 216 217 212 186 166 158 160 163 163 157 161 146 137 137 141 140 134 130 129 123 119 121 117 103 90 95 111 85 69 108 116 30 320 321 336 352 339 317 306 297 279 271
235 220 205 194 173 159 161 165 169 162 136 133 133 141 142 142 137 132 130 128 125 123 120 114 108 88 73 86 83 52 22 55 199 220 283 304 324 322 324 310 291 277 263
256 241 209 181 166 160 164 166 168 161 149 148 151 154 150 144 135 131 130 126 122 120 119 119 113 100 83 74 58 51 65 26 347 303 286 302 297 291 299 285 281 270 252